Weather in Kanev

Ukraine / Cherkassi District     49°45′03″N   31°28′10″E
temp.,
°C
wind,
m/s
gust,
m/s
humid.,
%
clouds,
%
prec.,
mm/h
press.,
hPa
HPBL,
m
9 march, tue
tue923:00−5nw4118333 0.0 1015305
02:00−6wnw378717 0.0 1017141
05:00−7nw34910 0.0 101882
08:00−5nnw369326 0.0 1020449
11:00−4n3582100 0.2 1021754
14:00−3n347896 0.3 1022804
17:00−5nne238697 0.1 1023109
20:00−8ene128899 0.1 102526
10 march, wed
wed1023:00−9ese118747 0.0 102521
02:00−10e118639 0.0 102721
05:00−10e118656 0.0 102621
08:00−9ese228678 0.0 102784
11:00−5ese2276100 0.0 1027406
14:00−3e2369100 0.0 1026727
17:00−5ene338660 0.0 102588
20:00−9e228330 0.0 102628
11 march, thu
thu1123:00−10ene12793 0.0 102623
02:00−10ene12809 0.0 102723
05:00−11ene228220 0.0 102727
08:00−9ene228232 0.0 102791
11:00−4e237451 0.0 1027321
14:00−3ene227347 0.0 1027486
17:00−5ene23860 0.0 102677
20:00−8ene33840 0.0 102755
12 march, fri
fri1223:00−9ese22830 0.0 102825
02:00−7sse338220 0.0 102739
05:00−6sse4107895 0.0 1026243
08:00−4sse7147398 0.0 1025568
11:00−1s91466100 0.0 10241126
14:000s91573100 0.0 10221334
17:00−1s101690100 0.4 10211089
20:00−2s101690100 0.8 1021907
13 march, sat
sat1323:00−2s91687100 0.3 1020656
02:000ssw8139799 0.8 1020526
05:00+1ssw51098100 0.2 1020335
08:00+1ssw5897100 0.2 1020303
11:00+2s589896 0.0 1020471
14:00+3s499598 0.0 1019541
17:00+2s51297100 0.2 1018427
20:00+1s61298100 1.8 1018500